Location: Aldenham
(51.6667°N, 0.3500°W)
Time: 06:05:37
(UTC+00:00)

A-11 Canister half - Pass Details

Date: 20 February 2026
Orbit: 1512 x 1687 km, 47.2° (Epoch: 5 March)

Event Time Altitude Azimuth Distance (km) Brightness Sun altitude
Rises 17:40:07 0° 167° (SSE) 4,927 11.7 -3.1°
Reaches altitude 10° 17:46:46 10° 137° (SE) 3,946 10.9 -4.1°
Maximum altitude 17:49:16 11° 122° (ESE) 3,851 10.7 -4.4°
Drops below altitude 10° 17:51:46 10° 107° (ESE) 3,941 10.6 -4.8°
Enters shadow 17:55:22 - 89° (E) 4,364 10.7 -5.4°
Sets 17:58:20 0° 77° (ENE) 4,908 - -5.8°
